Weather History for Wise, VA

Change the Weather History Date:

Friday, October 14, 2011

  Actual Average Record
Temperature  
Mean Temperature 56 °F -  
Max Temperature 62 °F 62 °F 80 °F (2008)
Min Temperature 51 °F 43 °F 30 °F (2006)
Degree Days  
Heating Degree Days 8    
Growing Degree Days 6 (Base 50)    
Moisture  
Dew Point 45 °F    
Average Humidity 67    
Maximum Humidity 100    
Minimum Humidity 36    
Precipitation  
Precipitation 0.00 in - - ()
Sea Level Pressure  
Sea Level Pressure 29.75 in    
Wind  
Wind Speed 11 mph (West)    
Max Wind Speed 20 mph    
Max Gust Speed 32 mph    
Visibility 9 miles    
Events      
Averages and records for this station are not official NWS values.
T = Trace of Precipitation, MM = Missing Value Source: NWS Daily Summary

Daily Weather History Graph

Daily Weather History Graph

Search for Another Location

Airport:

Trip Planner

Search our weather history database for the weather conditions in past years. The results will help you decide how hot, cold, wet, or windy it might be!

Date:

Astronomy

Oct. 14, 2011 Rise Set
Actual Time 7:36 AM EDT 6:55 PM EDT
Civil Twilight 7:10 AM EDT 7:21 PM EDT
Nautical Twilight 6:40 AM EDT 7:51 PM EDT
Astronomical Twilight 6:10 AM EDT 8:21 PM EDT
Moon 8:13 PM EDT (10/14) 9:59 AM EDT (10/14)
Length of Visible Light 12h 10m
Length of Day
11h 18m
Waning Gibbous, 94% of the Moon is Illuminated
Oct 14
Waning Gibbous
Oct 19
Last Quarter
Oct 26
New
Nov 2
First Quarter
Nov 10
Full

Hourly Weather History & Observations

Time (EDT) Temp. Dew Point Humidity Pressure Visibility Wind Dir Wind Speed Gust Speed Precip Events Conditions
12:15 AM 57.2 °F 55.4 °F 94% 29.66 in 10.0 mi SW 8.1 mph - N/A   Unknown
12:35 AM 57.2 °F 55.4 °F 94% 29.66 in 10.0 mi SW 8.1 mph - N/A   Unknown
12:55 AM 57.2 °F 55.4 °F 94% 29.65 in 10.0 mi SW 8.1 mph - N/A   Unknown
1:15 AM 57.2 °F 55.4 °F 94% 29.65 in 2.0 mi WSW 9.2 mph - N/A   Unknown
1:35 AM 55.4 °F 55.4 °F 100% 29.65 in 10.0 mi WSW 8.1 mph - N/A   Unknown
1:55 AM 55.4 °F 55.4 °F 100% 29.65 in 10.0 mi WSW 8.1 mph - N/A   Unknown
2:15 AM 55.4 °F 53.6 °F 94% 29.65 in 10.0 mi West 11.5 mph - N/A   Unknown
2:35 AM 55.4 °F 53.6 °F 94% 29.66 in 7.0 mi West 5.8 mph - N/A   Unknown
2:55 AM 55.4 °F 53.6 °F 94% 29.66 in 7.0 mi WSW 11.5 mph 23.0 mph N/A   Unknown
3:15 AM 55.4 °F 53.6 °F 94% 29.67 in 10.0 mi West 12.7 mph 19.6 mph N/A   Unknown
3:35 AM 55.4 °F 51.8 °F 88% 29.67 in 10.0 mi WNW 10.4 mph 25.3 mph N/A   Unknown
3:55 AM 55.4 °F 51.8 °F 88% 29.67 in 10.0 mi WNW 9.2 mph 20.7 mph N/A   Unknown
4:15 AM 53.6 °F 51.8 °F 94% 29.67 in 4.0 mi West 12.7 mph 18.4 mph N/A   Unknown
4:35 AM 53.6 °F 51.8 °F 94% 29.69 in 7.0 mi West 12.7 mph 21.9 mph N/A   Unknown
4:55 AM 53.6 °F 51.8 °F 94% 29.70 in 5.0 mi West 8.1 mph 16.1 mph N/A   Unknown
5:15 AM 51.8 °F 50.0 °F 94% 29.71 in 4.0 mi WNW 12.7 mph 21.9 mph N/A   Unknown
5:35 AM 51.8 °F 50.0 °F 94% 29.71 in 10.0 mi WNW 8.1 mph - N/A   Unknown
5:55 AM 51.8 °F 48.2 °F 88% 29.71 in 10.0 mi West 6.9 mph - N/A   Unknown
6:15 AM 53.6 °F 48.2 °F 82% 29.71 in 10.0 mi West 12.7 mph - N/A   Unknown
6:35 AM 53.6 °F 48.2 °F 82% 29.72 in 10.0 mi West 8.1 mph - N/A   Unknown
6:55 AM 53.6 °F 48.2 °F 82% 29.73 in 10.0 mi West 9.2 mph - N/A   Unknown
7:15 AM 51.8 °F 46.4 °F 82% 29.74 in 10.0 mi West 9.2 mph - N/A   Unknown
7:35 AM 51.8 °F 46.4 °F 82% 29.74 in 10.0 mi West 8.1 mph - N/A   Unknown
7:55 AM 51.8 °F 46.4 °F 82% 29.74 in 10.0 mi WSW 9.2 mph - N/A   Unknown
8:15 AM 51.8 °F 46.4 °F 82% 29.75 in 10.0 mi West 8.1 mph - N/A   Unknown
8:35 AM 51.8 °F 46.4 °F 82% 29.75 in 10.0 mi WSW 8.1 mph - N/A   Unknown
9:15 AM 53.6 °F 46.4 °F 77% 29.77 in 10.0 mi WSW 9.2 mph - N/A   Unknown
9:35 AM 55.4 °F 44.6 °F 67% 29.77 in 10.0 mi WSW 12.7 mph 17.3 mph N/A   Unknown
9:55 AM 55.4 °F 44.6 °F 67% 29.78 in 10.0 mi WSW 10.4 mph 18.4 mph N/A   Unknown
10:15 AM 57.2 °F 42.8 °F 59% 29.78 in 10.0 mi West 13.8 mph 21.9 mph N/A   Unknown
10:35 AM 57.2 °F 42.8 °F 59% 29.79 in 10.0 mi West 17.3 mph 20.7 mph N/A   Unknown
10:55 AM 59.0 °F 41.0 °F 51% 29.79 in 10.0 mi West 17.3 mph 25.3 mph N/A   Unknown
11:15 AM 59.0 °F 42.8 °F 55% 29.80 in 10.0 mi WSW 18.4 mph 25.3 mph N/A   Unknown
11:35 AM 59.0 °F 42.8 °F 55% 29.80 in 10.0 mi West 13.8 mph 28.8 mph N/A   Unknown
11:55 AM 60.8 °F 42.8 °F 52% 29.81 in 10.0 mi West 16.1 mph 24.2 mph N/A   Unknown
12:15 PM 60.8 °F 42.8 °F 52% 29.81 in 10.0 mi WSW 18.4 mph 25.3 mph N/A   Unknown
12:35 PM 59.0 °F 41.0 °F 51% 29.81 in 10.0 mi West 18.4 mph 26.5 mph N/A   Unknown
12:55 PM 59.0 °F 39.2 °F 48% 29.81 in 10.0 mi West 19.6 mph 31.1 mph N/A   Unknown
1:15 PM 60.8 °F 39.2 °F 45% 29.80 in 10.0 mi West 18.4 mph 24.2 mph N/A   Unknown
1:35 PM 59.0 °F 39.2 °F 48% 29.80 in 10.0 mi WSW 16.1 mph 32.2 mph N/A   Unknown
1:55 PM 59.0 °F 39.2 °F 48% 29.79 in 10.0 mi WSW 16.1 mph 26.5 mph N/A   Unknown
2:15 PM 60.8 °F 39.2 °F 45% 29.79 in 10.0 mi West 17.3 mph 29.9 mph N/A   Unknown
2:35 PM 62.6 °F 39.2 °F 42% 29.78 in 10.0 mi West 15.0 mph 23.0 mph N/A   Unknown
2:55 PM 60.8 °F 39.2 °F 45% 29.78 in 10.0 mi West 11.5 mph 19.6 mph N/A   Unknown
3:15 PM 59.0 °F 39.2 °F 48% 29.78 in 10.0 mi West 9.2 mph 20.7 mph N/A   Unknown
3:35 PM 62.6 °F 39.2 °F 42% 29.78 in 10.0 mi WNW 11.5 mph 23.0 mph N/A   Unknown
3:55 PM 60.8 °F 39.2 °F 45% 29.78 in 10.0 mi West 8.1 mph 20.7 mph N/A   Unknown
4:15 PM 60.8 °F 37.4 °F 42% 29.79 in 10.0 mi WSW 18.4 mph 27.6 mph N/A   Unknown
4:55 PM 60.8 °F 35.6 °F 39% 29.79 in 10.0 mi West 10.4 mph 18.4 mph N/A   Unknown
5:15 PM 59.0 °F 33.8 °F 39% 29.80 in 10.0 mi West 13.8 mph 20.7 mph N/A   Unknown
5:35 PM 60.8 °F 35.6 °F 39% 29.80 in 10.0 mi West 15.0 mph 18.4 mph N/A   Unknown
5:55 PM 60.8 °F 33.8 °F 36% 29.80 in 10.0 mi West 15.0 mph 19.6 mph N/A   Unknown
6:15 PM 60.8 °F 33.8 °F 36% 29.81 in 10.0 mi WSW 12.7 mph 21.9 mph N/A   Unknown
6:35 PM 59.0 °F 33.8 °F 39% 29.81 in 10.0 mi West 17.3 mph 26.5 mph N/A   Unknown
6:55 PM 57.2 °F 33.8 °F 41% 29.82 in 10.0 mi WSW 15.0 mph 19.6 mph N/A   Unknown
7:15 PM 57.2 °F 33.8 °F 41% 29.83 in 10.0 mi West 9.2 mph - N/A   Unknown
7:35 PM 55.4 °F 33.8 °F 44% 29.84 in 10.0 mi WSW 11.5 mph 16.1 mph N/A   Unknown
7:55 PM 55.4 °F 33.8 °F 44% 29.85 in 10.0 mi West 9.2 mph - N/A   Unknown
8:15 PM 55.4 °F 33.8 °F 44% 29.86 in 10.0 mi West 8.1 mph - N/A   Unknown
8:35 PM 55.4 °F 33.8 °F 44% 29.87 in 10.0 mi West 10.4 mph 17.3 mph N/A   Unknown
9:15 PM 55.4 °F 30.2 °F 38% 29.88 in 10.0 mi West 8.1 mph - N/A   Unknown
9:35 PM 55.4 °F 30.2 °F 38% 29.88 in 10.0 mi West 8.1 mph - N/A   Unknown
9:55 PM 53.6 °F 30.2 °F 41% 29.89 in 10.0 mi West 8.1 mph - N/A   Unknown
10:15 PM 53.6 °F 32.0 °F 44% 29.89 in 10.0 mi West 5.8 mph - N/A   Unknown
10:35 PM 53.6 °F 32.0 °F 44% 29.89 in 10.0 mi WSW 6.9 mph - N/A   Unknown
10:55 PM 53.6 °F 32.0 °F 44% 29.89 in 10.0 mi West 5.8 mph - N/A   Unknown
11:15 PM 51.8 °F 32.0 °F 47% 29.90 in 10.0 mi WSW 5.8 mph - N/A   Unknown
11:35 PM 51.8 °F 32.0 °F 47% 29.89 in 10.0 mi WSW 5.8 mph - N/A   Unknown
11:55 PM 50.0 °F 32.0 °F 50% 29.89 in 10.0 mi WSW 5.8 mph - N/A   Unknown